Melfa, VA

5:51 AM EDT on May 30, 2017 (GMT -0400)
Accomack County

Weather History for KMFV - November, 2013

Change the Weather History Date:

Tuesday, November 26, 2013

  Actual Average (KWAL) Record (KWAL)
Temperature  
Mean Temperature 52 °F -  
Max Temperature 64 °F 53 °F 73 °F (1990)
Min Temperature 39 °F 36 °F 22 °F (1974)
Degree Days  
Heating Degree Days 14    
Growing Degree Days 2 (Base 50)    
Moisture  
Dew Point 41 °F    
Average Humidity 70    
Maximum Humidity 94    
Minimum Humidity 34    
Precipitation  
Precipitation 0.62 in - - ()
Sea Level Pressure  
Sea Level Pressure 30.14 in    
Wind  
Wind Speed 6 mph (SE)    
Max Wind Speed 20 mph    
Max Gust Speed 32 mph    
Visibility 9 miles    
Events Rain    
Averages and records for this station are not official NWS values.
T = Trace of Precipitation, MM = Missing Value Source: NWS Daily Summary

Daily Weather History Graph

Daily Weather History Graph

Search for Another Location

Airport or City:

Trip Planner

Search our weather history database for the weather conditions in past years. The results will help you decide how hot, cold, wet, or windy it might be!

Date:

Astronomy

Nov. 26, 2013 Rise Set
Actual Time 6:54 AM EST 4:45 PM EST
Civil Twilight 6:26 AM EST 5:14 PM EST
Nautical Twilight 5:53 AM EST 5:46 PM EST
Astronomical Twilight 5:22 AM EST 6:18 PM EST
Moon 12:03 AM EST (11/26) 12:44 PM EST (11/26)
Length of Visible Light 10h 48m
Length of Day
9h 51m
Last Quarter, 41% of the Moon is Illuminated
Nov 26
Last Quarter
Dec 2
New
Dec 9
First Quarter
Dec 17
Full
Dec 25
Last Quarter

Hourly Weather History & Observations

Time (EST) Temp. Windchill Dew Point Humidity Pressure Visibility Wind Dir Wind Speed Gust Speed Precip Events Conditions
12:15 AM 41.0 °F 35.8 °F 21.2 °F 45% 30.40 in 10.0 mi SSW 8.1 mph - N/A   Clear
12:35 AM 41.0 °F 36.4 °F 21.2 °F 45% 30.40 in 10.0 mi SW 6.9 mph - N/A   Clear
12:55 AM 41.0 °F 36.4 °F 21.2 °F 45% 30.41 in 10.0 mi SW 6.9 mph - N/A   Clear
1:15 AM 42.8 °F 38.6 °F 23.0 °F 46% 30.39 in 10.0 mi WSW 6.9 mph - N/A   Clear
1:35 AM 41.0 °F 38.0 °F 23.0 °F 49% 30.38 in 10.0 mi SW 4.6 mph - N/A   Clear
1:55 AM 42.8 °F 40.1 °F 24.8 °F 49% 30.38 in 10.0 mi WSW 4.6 mph - N/A   Clear
2:15 AM 41.0 °F 39.0 °F 24.8 °F 53% 30.37 in 10.0 mi WSW 3.5 mph - N/A   Clear
2:35 AM 41.0 °F 39.0 °F 26.6 °F 57% 30.37 in 10.0 mi WSW 3.5 mph - N/A   Clear
2:55 AM 41.0 °F 39.0 °F 26.6 °F 57% 30.37 in 10.0 mi WSW 3.5 mph - N/A   Clear
3:15 AM 42.8 °F 40.1 °F 26.6 °F 53% 30.37 in 10.0 mi WSW 4.6 mph - N/A   Clear
3:35 AM 41.0 °F 39.0 °F 26.6 °F 57% 30.37 in 10.0 mi WSW 3.5 mph - N/A   Clear
3:55 AM 41.0 °F - 28.4 °F 61% 30.35 in 10.0 mi Calm Calm - N/A   Clear
4:15 AM 39.2 °F - 30.2 °F 70% 30.34 in 10.0 mi Calm Calm - N/A   Clear
4:35 AM 39.2 °F - 30.2 °F 70% 30.34 in 10.0 mi Calm Calm - N/A   Scattered Clouds
4:55 AM 39.2 °F - 30.2 °F 70% 30.35 in 10.0 mi Calm Calm - N/A   Mostly Cloudy
5:15 AM 41.0 °F - 30.2 °F 65% 30.33 in 10.0 mi Calm Calm - N/A   Mostly Cloudy
5:35 AM 41.0 °F - 30.2 °F 65% 30.34 in 10.0 mi Calm Calm - N/A   Mostly Cloudy
5:57 AM 41.0 °F - 30.2 °F 65% 30.32 in 10.0 mi Calm Calm - N/A   Overcast
6:15 AM 41.0 °F - 28.4 °F 61% 30.32 in 10.0 mi Calm Calm - N/A   Overcast
6:35 AM 42.8 °F - 28.4 °F 57% 30.31 in 10.0 mi Calm Calm - N/A   Overcast
6:55 AM 42.8 °F - 30.2 °F 61% 30.32 in 10.0 mi Calm Calm - N/A   Overcast
7:15 AM 42.8 °F - 30.2 °F 61% 30.32 in 10.0 mi Calm Calm - N/A   Overcast
7:35 AM 42.8 °F - 30.2 °F 61% 30.31 in 10.0 mi Calm Calm - N/A   Mostly Cloudy
7:55 AM 42.8 °F - 30.2 °F 61% 30.31 in 10.0 mi Calm Calm - N/A   Mostly Cloudy
8:15 AM 44.6 °F - 30.2 °F 57% 30.32 in 10.0 mi Calm Calm - N/A   Overcast
8:36 AM 44.6 °F - 30.2 °F 57% 30.31 in 10.0 mi Calm Calm - N/A   Overcast
8:55 AM 46.4 °F - 28.4 °F 50% 30.31 in 10.0 mi Calm Calm - N/A   Overcast
9:17 AM 46.4 °F - 28.4 °F 50% 30.30 in 10.0 mi Calm Calm - N/A   Overcast
9:35 AM 46.4 °F - 28.4 °F 50% 30.29 in 10.0 mi Calm Calm - N/A   Scattered Clouds
9:55 AM 48.2 °F - 26.6 °F 43% 30.28 in 10.0 mi ENE 4.6 mph - N/A   Clear
10:15 AM 48.2 °F - 24.8 °F 40% 30.27 in 10.0 mi East 3.5 mph - N/A   Clear
10:35 AM 48.2 °F - 21.2 °F 34% 30.26 in 10.0 mi East 3.5 mph - N/A   Clear
10:55 AM 50.0 °F - 24.8 °F 37% 30.25 in 10.0 mi East 3.5 mph - N/A   Scattered Clouds
11:15 AM 51.8 °F - 32.0 °F 47% 30.23 in 10.0 mi East 5.8 mph - N/A   Light Drizzle
11:35 AM 51.8 °F - 35.6 °F 54% 30.21 in 10.0 mi East 6.9 mph - N/A   Clear
11:55 AM 53.6 °F - 37.4 °F 54% 30.20 in 10.0 mi ESE 4.6 mph - N/A   Clear
12:15 PM 53.6 °F - 39.2 °F 58% 30.19 in 10.0 mi East 5.8 mph - N/A   Scattered Clouds
12:35 PM 53.6 °F - 42.8 °F 67% 30.19 in 10.0 mi East 5.8 mph - N/A Rain Light Rain
12:55 PM 51.8 °F - 46.4 °F 82% 30.18 in 7.0 mi East 6.9 mph - 0.01 in Rain Light Rain
1:15 PM 51.8 °F - 46.4 °F 82% 30.17 in 10.0 mi East 6.9 mph - N/A Rain Light Rain
1:35 PM 51.8 °F - 46.4 °F 82% 30.16 in 10.0 mi East 3.5 mph - N/A Rain Light Rain
1:55 PM 51.8 °F - 48.2 °F 88% 30.15 in 10.0 mi ENE 6.9 mph - 0.01 in Rain Light Rain
2:15 PM 51.8 °F - 48.2 °F 88% 30.15 in 10.0 mi ENE 5.8 mph - 0.01 in Rain Rain
2:35 PM 51.8 °F - 48.2 °F 88% 30.14 in 10.0 mi ENE 5.8 mph - 0.02 in Rain Light Rain
2:55 PM 51.8 °F - 48.2 °F 88% 30.11 in 10.0 mi East 10.4 mph - 0.02 in Rain Light Rain
3:17 PM 53.6 °F - 50.0 °F 88% 30.10 in 10.0 mi East 8.1 mph - N/A   Scattered Clouds
3:55 PM 53.6 °F - 51.8 °F 94% 30.08 in 10.0 mi East 4.6 mph - 0.01 in Rain Light Rain
4:15 PM 55.4 °F - 51.8 °F 88% 30.06 in 10.0 mi East 8.1 mph - 0.01 in Rain Light Rain
4:35 PM 55.4 °F - 51.8 °F 88% 30.05 in 10.0 mi East 4.6 mph - 0.03 in Rain Rain
5:16 PM 57.2 °F - 55.4 °F 94% 30.00 in 10.0 mi ESE 9.2 mph - 0.03 in Rain Rain
5:35 PM 59.0 °F - 55.4 °F 88% 29.99 in 10.0 mi ESE 9.2 mph - 0.04 in Rain Rain
5:55 PM 59.0 °F - 55.4 °F 88% 29.97 in 10.0 mi ESE 10.4 mph - 0.06 in Rain Light Rain
6:16 PM 60.8 °F - 55.4 °F 82% 29.95 in 7.0 mi SE 12.7 mph 23.0 mph 0.03 in Rain Rain
6:35 PM 60.8 °F - 57.2 °F 88% 29.93 in 7.0 mi SE 11.5 mph 19.6 mph 0.05 in Rain Light Rain
6:55 PM 60.8 °F - 57.2 °F 88% 29.92 in 7.0 mi ESE 10.4 mph 19.6 mph 0.07 in Rain Light Rain
7:15 PM 60.8 °F - 57.2 °F 88% 29.90 in 10.0 mi ESE 12.7 mph 23.0 mph 0.03 in Rain Light Rain
7:35 PM 60.8 °F - 57.2 °F 88% 29.89 in 7.0 mi ESE 15.0 mph 23.0 mph 0.06 in Rain Rain
7:55 PM 60.8 °F - 57.2 °F 88% 29.87 in 10.0 mi SE 13.8 mph 21.9 mph 0.08 in Rain Light Rain
8:15 PM 62.6 °F - 59.0 °F 88% 29.85 in 7.0 mi SE 15.0 mph 25.3 mph 0.03 in Rain Rain
8:35 PM 62.6 °F - 59.0 °F 88% 29.83 in 5.0 mi SE 13.8 mph 24.2 mph 0.09 in Rain Rain
8:55 PM 62.6 °F - 60.8 °F 94% 29.79 in 7.0 mi SE 13.8 mph 20.7 mph 0.15 in Rain Rain
9:15 PM 62.6 °F - 60.8 °F 94% 29.77 in 5.0 mi SE 13.8 mph 24.2 mph 0.03 in Rain Rain
9:35 PM 62.6 °F - 60.8 °F 94% 29.75 in 5.0 mi SE 11.5 mph 25.3 mph 0.06 in Rain Rain
9:55 PM 62.6 °F - 60.8 °F 94% 29.73 in 7.0 mi SE 13.8 mph 24.2 mph 0.09 in Rain Light Rain
10:15 PM 62.6 °F - 60.8 °F 94% 29.70 in 5.0 mi SE 16.1 mph 26.5 mph 0.01 in Rain Light Rain
10:35 PM 64.4 °F - 60.8 °F 88% 29.68 in 4.0 mi North - - 0.02 in Rain Rain
10:55 PM 64.4 °F - 60.8 °F 88% 29.66 in 7.0 mi North - - 0.04 in Rain Light Rain
11:15 PM 64.4 °F - 62.6 °F 94% 29.64 in 5.0 mi SSE 13.8 mph 25.3 mph N/A   Light Drizzle
11:35 PM 64.4 °F - 62.6 °F 94% 29.63 in 7.0 mi SSE 17.3 mph 31.1 mph 0.02 in Rain Light Rain
11:55 PM 64.4 °F - 62.6 °F 94% 29.62 in 5.0 mi SSE 19.6 mph 32.2 mph 0.05 in Rain Light Rain